BREEZE-KM R/B, 44909

Orbit data source: Space-Track

BREEZE-KM R/B, 44909 is space debris in LEO originally from a launch on Thu, 26 Dec 2019 UTC via an ROKOT launch vehicle from the Plesetsk Missile And Space Complex (PKMTR). Debris objects in space refer to the collection of defunct objects orbiting the Earth. Examples of debris include non-operational satellites, rocket bodies, and fragments generated from explosions, collisions, or faulty payload assembly.

Loading next visibility...
Identifier
44909, 2019-096E
Orbit
LEO
Country
Flag of CISCIS
Related business
Manufacturer
SNIU/RESH
Mission
Operational spacecraft
Bus & Motor
YUBILYENIY, Unknown motor
Mass
~2,420 kg wet, ~50 kg dry
Launch date (UTC)
2019-12-26 (6 years ago)
Launch vehicle
ROKOT
Launch site
Plesetsk Missile And Space Complex (PKMTR)
Object type
Payload
Rocket body
Debris
Shape & HBR
Unknown
Radar Cross Section
Large (>1 m²)

Expand to show TLE details & history
Last TLE update: 19 hours ago

TLE from 19 hours ago
0 BREEZE-KM R/B
1 44909U 19096E   25340.83774749  .00000020  00000-0  39903-4 0  9994
2 44909  82.5204 107.5302 0216844 233.9304 124.1541 12.79745862277742
Epoch: 2025-12-06T20:06Z
TLE epoch observation values (Epoch: 2025-12-06T20:06:21.383Z)
Latitude
-0.00003°
Longitude
90.08135°
Altitude
1,441.694 km
Speed
7.096 km/s
True Right ascension
07h 10m 07s
True Declination
0° 00' 00"
Sunlit
Object was in full shadow at epoch
Visualization orbit readout
Latitude
Unknown
Longitude
Unknown
Altitude
Unknown
Speed
Unknown
Apparent Right ascension
Unknown
Apparent Declination
Unknown
Sunlit
N/A
Visualization observer readout
Local Sidereal Time
12:43:20
Azimuth
Unknown
Elevation
Unknown
Doppler factor
Unknown
Orbital elements
Apogee altitude
1,507.147 km
Perigee altitude
1,172.43 km
Semi-major axis
7,717.925 km
Eccentricity
0.02168
Inclination
82.5204°
RAAN
107.5302°
Arg. of periapsis
233.9304°
True anomaly
126.17913°
Mean anomaly
124.1541°
Eccentric anomaly
125.16972°
Mean motion
3.20105 °/min
Orbital period
112.46 mins
BSTAR
0.000039903
Loading maneuver chart data...
Computing Atmospheric mass density...
Loading historical data...
Loading historical data...
Loading historical data...
Loading historical data...
Loading historical data...
Loading historical data...
Loading historical data...

Documentation

Showing up to 5 results
|